Location: Bazugues
(43.4465°N, 0.3432°E)
Time: 22:42:01
(UTC+00:00)

UNISAT 6 - Pass Details

Date: 25 May 2026
Orbit: 571 x 636 km, 97.8° (Epoch: 7 June)

Event Time Altitude Azimuth Distance (km) Brightness Sun altitude
Rises 03:23:49 0° 176° (S) 2,888 ? -9.9°
Reaches altitude 10° 03:26:03 10° 181° (S) 1,977 ? -9.5°
Maximum altitude 03:30:16 55° 259° (W) 735 ? -9.0°
Drops below altitude 10° 03:34:27 10° 338° (NNW) 1,953 ? -8.4°
Sets 03:36:39 0° 343° (NNW) 2,850 ? -8.1°
